Starlink 3635

operational
NORAD ID: 51981 Int'l Des: 2022-025 Owner: SPXS Country: US Constellation: starlink
LEOCIRCULAR

About Starlink 3635

Description loading...

Live Position

Loading 3D Globe...

Upcoming Passes

Altitude History

Altitude vs Time

uPlot chart will show altitude changes over time

Two-Line Element Set

1 51981U 22025AB 26033.83928747 .00000703 00000-0 62248-4 0 9993
2 51981 53.2173 195.5716 0001353 83.8395 276.2751 15.08844120215796
Epoch: Feb 2, 2026 • Age: 33 hours

Current Status

Altitude 539.7 km
Velocity 7.59 km/s
Sub-Earth Point 11.07°N, 156.69°E
Launch Date Mar 9, 2022
Age 3.9 years
Type internet

Technical Details

Classification Payload
Mass 297.00 kg
Dry Mass 275.00 kg
Total Mass 297.00 kg
Length 0.20 m
Diameter 2.80 m
Span 9.00 m
Shape Box + pan
Manufacturer SPXS
Bus Type Starlink
Phase Status In Orbit
Owner/State SPXS/US

Large Constellations

Loading constellations...